Temp
-8 -8 -8 -8 -8 -7 -8 -8 -8 -8 -8 -8 -8 -8 -8 -8 -8 -8 -8 -8 -8 -8 -8 -8 -8 -8 -8 -8 -8 -8 -9 -9 -9 -9 -9 -10 -10 -10 -10 -10 -10 -11 -11
-8 -8 -8 -8 -7 -8 -8 -8 -8 -8 -8 -8 -8 -8 -8 -8 -8 -8 -8 -8 -8 -8 -8 -8 -8 -9 -9 -9 -9 -9 -9 -9 -9 -10 -10 -10 -10 -10 -10 -10 -11 -11 -11
-8 -8 -8 -8 -8 -8 -8 -9 -9 -9 -9 -9 -9 -9 -9 -9 -9 -9 -9 -9 -9 -9 -9 -9 -9 -9 -9 -9 -9 -9 -9 -10 -10 -10 -10 -10 -10 -10 -10 -11 -11 -11 -11
-9 -9 -9 -9 -9 -9 -9 -9 -9 -9 -9 -9 -9 -9 -9 -9 -9 -9 -9 -9 -9 -9 -9 -9 -9 -9 -9 -9 -10 -10 -10 -10 -10 -11 -11 -11 -11 -11 -11 -11 -11 -11 -12
-9 -10 -10 -10 -10 -10 -9 -9 -9 -9 -9 -9 -9 -9 -9 -9 -9 -9 -9 -9 -9 -9 -9 -9 -10 -10 -10 -10 -10 -10 -10 -10 -11 -11 -11 -11 -11 -11 -12 -12 -12 -12 -12
-10 -10 -10 -10 -10 -10 -10 -10 -9 -9 -9 -9 -9 -9 -9 -9 -9 -9 -9 -10 -10 -10 -10 -10 -10 -10 -10 -10 -10 -10 -10 -10 -10 -11 -11 -11 -11 -11 -12 -12 -12 -13 -13
-10 -10 -10 -10 -10 -10 -9 -9 -9 -9 -10 -9 -9 -9 -9 -9 -10 -10 -10 -10 -10 -10 -10 -10 -10 -11 -11 -11 -11 -11 -11 -11 -11 -11 -12 -12 -12 -12 -12 -12 -12 -12 -13
-10 -10 -10 -10 -10 -10 -10 -10 -10 -10 -10 -9 -9 -9 -9 -9 -10 -10 -10 -10 -10 -11 -11 -11 -11 -11 -11 -11 -11 -11 -12 -12 -12 -12 -12 -12 -12 -12 -12 -13 -13 -13 -13
-10 -10 -10 -10 -10 -10 -10 -10 -10 -10 -9 -10 -9 -9 -9 -9 -9 -10 -10 -11 -11 -11 -11 -11 -11 -12 -12 -12 -12 -12 -12 -12 -12 -12 -12 -11 -12 -12 -13 -13 -13 -13 -13
-10 -10 -10 -10 -10 -10 -10 -10 -10 -9 -9 -9 -9 -10 -10 -10 -9 -9 -10 -11 -11 -11 -11 -12 -12 -12 -12 -12 -12 -12 -13 -13 -14 -13 -13 -13 -12 -12 -13 -13 -13 -13 -14
-11 -11 -11 -11 -10 -10 -10 -10 -10 -10 -10 -10 -10 -11 -11 -11 -11 -11 -9 -10 -11 -11 -11 -11 -11 -12 -12 -12 -12 -12 -13 -14 -14 -15 -15 -15 -15 -15 -15 -15 -15 -15 -14
-11 -11 -11 -11 -11 -11 -10 -11 -11 -11 -11 -11 -11 -11 -12 -12 -12 -12 -12 -12 -12 -12 -12 -12 -12 -12 -12 -12 -13 -14 -14 -15 -17 -17 -17 -18 -17 -17 -16 -16 -16 -15 -15
-11 -11 -11 -11 -11 -11 -11 -11 -11 -11 -11 -12 -12 -12 -13 -13 -13 -13 -12 -12 -12 -12 -12 -12 -12 -12 -13 -13 -15 -17 -18 -20 -19 -19 -19 -19 -19 -19 -18 -16 -15 -15 -16
-11 -11 -11 -11 -11 -11 -11 -11 -11 -12 -12 -13 -13 -13 -13 -13 -13 -13 -14 -14 -13 -12 -12 -12 -13 -14 -16 -18 -19 -20 -21 -22 -22 -21 -21 -21 -21 -20 -19 -18 -16 -15 -15
-11 -11 -11 -11 -11 -11 -12 -12 -12 -13 -13 -13 -13 -13 -13 -14 -14 -14 -14 -15 -16 -15 -14 -13 -17 -19 -21 -22 -22 -22 -23 -23 -22 -23 -23 -22 -22 -22 -21 -20 -19 -18 -16
-11 -11 -12 -12 -12 -12 -12 -13 -13 -13 -13 -13 -14 -14 -14 -14 -15 -15 -16 -18 -20 -22 -22 -19 -20 -21 -22 -23 -23 -23 -23 -23 -23 -23 -23 -23 -23 -23 -23 -22 -21 -20 -19
-12 -12 -12 -13 -13 -13 -13 -13 -14 -14 -14 -14 -14 -15 -15 -15 -16 -17 -19 -21 -22 -22 -22 -21 -22 -22 -22 -23 -23 -24 -24 -24 -23 -23 -23 -23 -23 -23 -23 -23 -22 -21 -20
-12 -13 -13 -13 -14 -14 -14 -14 -14 -14 -15 -15 -15 -15 -16 -17 -19 -21 -22 -22 -22 -22 -23 -23 -22 -23 -23 -24 -24 -24 -24 -24 -24 -24 -24 -23 -23 -23 -23 -23 -23 -23 -22
-13 -14 -14 -14 -14 -14 -15 -15 -15 -15 -15 -15 -16 -17 -18 -20 -22 -23 -23 -23 -22 -23 -24 -25 -24 -25 -24 -24 -24 -25 -25 -25 -25 -24 -24 -24 -23 -23 -23 -23 -23 -23 -23
-14 -15 -15 -15 -15 -16 -16 -16 -16 -16 -16 -16 -18 -20 -21 -23 -24 -23 -23 -23 -24 -24 -25 -25 -25 -25 -25 -25 -26 -26 -26 -26 -25 -25 -24 -24 -24 -23 -23 -23 -23 -23 -23
-15 -15 -15 -16 -16 -16 -16 -16 -16 -17 -17 -18 -20 -22 -24 -24 -24 -23 -24 -25 -25 -25 -26 -26 -25 -26 -26 -27 -27 -28 -29 -28 -27 -26 -25 -24 -24 -24 -23 -23 -23 -23 -23
-16 -16 -16 -17 -17 -17 -17 -17 -17 -18 -19 -21 -23 -24 -24 -24 -24 -25 -25 -26 -26 -26 -26 -27 -26 -27 -27 -28 -28 -29 -29 -30 -29 -29 -27 -25 -25 -24 -24 -23 -23 -23 -23
-17 -17 -17 -17 -17 -18 -18 -18 -19 -20 -22 -24 -24 -25 -24 -24 -25 -26 -26 -26 -26 -26 -27 -28 -27 -27 -27 -28 -28 -28 -29 -30 -30 -30 -29 -25 -26 -24 -24 -23 -23 -23 -23
-17 -17 -17 -18 -18 -18 -19 -20 -22 -23 -24 -25 -25 -25 -25 -25 -26 -26 -26 -26 -26 -27 -27 -28 -28 -28 -28 -28 -29 -28 -29 -29 -29 -30 -28 -26 -27 -25 -24 -23 -23 -23 -23
-18 -18 -18 -18 -19 -20 -21 -23 -24 -25 -25 -25 -25 -25 -26 -26 -27 -27 -26 -26 -26 -27 -28 -29 -29 -29 -28 -29 -29 -28 -29 -29 -29 -29 -29 -28 -26 -25 -24 -24 -23 -23 -23
-18 -18 -19 -19 -20 -21 -23 -25 -25 -25 -25 -26 -25 -26 -27 -27 -27 -27 -27 -26 -26 -27 -28 -28 -29 -29 -29 -29 -29 -29 -29 -29 -29 -30 -29 -29 -26 -26 -25 -24 -24 -24 -24
Height
5807 5804 5802 5799 5796 5794 5790 5786 5783 5780 5777 5775 5772 5770 5767 5765 5762 5760 5758 5755 5752 5749 5746 5744 5741 5738 5736 5734 5732 5729 5727 5725 5723 5722 5721 5719 5718 5717 5716 5715 5716 5715 5715
5800 5797 5794 5791 5789 5785 5781 5778 5775 5772 5770 5767 5764 5761 5759 5757 5754 5752 5749 5747 5743 5739 5736 5734 5730 5727 5723 5721 5718 5717 5715 5712 5711 5709 5707 5706 5705 5704 5703 5703 5702 5702 5701
5793 5790 5786 5783 5780 5776 5773 5771 5768 5766 5763 5760 5757 5754 5751 5749 5746 5743 5739 5737 5734 5730 5726 5722 5719 5715 5712 5709 5706 5703 5701 5699 5697 5695 5694 5692 5691 5690 5689 5688 5687 5687 5686
5786 5783 5779 5776 5773 5769 5766 5763 5761 5758 5755 5752 5750 5746 5743 5741 5737 5733 5729 5725 5722 5719 5715 5711 5704 5701 5698 5695 5692 5689 5687 5684 5683 5681 5679 5678 5678 5676 5676 5675 5674 5673 5672
5778 5775 5772 5769 5766 5762 5759 5756 5752 5749 5746 5742 5740 5738 5734 5731 5727 5723 5718 5713 5709 5704 5700 5696 5693 5688 5682 5679 5677 5675 5673 5671 5667 5665 5663 5662 5662 5661 5660 5659 5658 5658 5658
5770 5767 5765 5762 5758 5755 5751 5748 5745 5741 5737 5734 5731 5728 5724 5720 5716 5711 5708 5703 5697 5691 5686 5682 5677 5673 5670 5665 5659 5656 5654 5653 5651 5648 5645 5644 5644 5643 5644 5644 5643 5643 5644
5763 5760 5757 5754 5750 5747 5743 5740 5736 5732 5728 5723 5720 5718 5713 5709 5704 5698 5694 5688 5683 5677 5671 5665 5660 5655 5650 5646 5642 5638 5635 5632 5631 5630 5628 5628 5628 5627 5625 5626 5628 5628 5627
5756 5752 5749 5745 5741 5737 5733 5729 5726 5722 5717 5712 5706 5701 5699 5698 5690 5684 5678 5673 5667 5662 5656 5650 5643 5636 5630 5625 5621 5617 5612 5609 5608 5607 5607 5608 5608 5607 5607 5608 5608 5609 5611
5748 5744 5740 5737 5733 5729 5724 5720 5715 5710 5705 5700 5692 5684 5680 5676 5672 5668 5664 5657 5651 5644 5638 5632 5626 5618 5611 5605 5600 5597 5591 5584 5581 5581 5580 5584 5586 5587 5587 5586 5587 5588 5590
5739 5735 5731 5727 5723 5719 5714 5709 5703 5697 5691 5684 5678 5671 5663 5653 5643 5643 5639 5632 5627 5621 5616 5610 5602 5595 5586 5578 5573 5570 5566 5561 5556 5552 5554 5555 5559 5562 5563 5564 5564 5565 5568
5731 5727 5723 5718 5713 5707 5701 5695 5688 5681 5674 5666 5658 5650 5642 5635 5627 5619 5621 5607 5601 5591 5587 5581 5574 5565 5556 5547 5541 5535 5533 5530 5527 5524 5521 5522 5527 5532 5535 5536 5539 5542 5546
5722 5718 5712 5707 5701 5695 5688 5681 5673 5665 5657 5649 5640 5631 5621 5611 5602 5594 5589 5587 5579 5573 5564 5557 5545 5533 5524 5515 5508 5500 5498 5496 5493 5491 5491 5492 5497 5504 5509 5510 5514 5522 5523
5712 5706 5701 5695 5688 5681 5674 5666 5658 5649 5640 5630 5620 5611 5600 5589 5578 5568 5557 5556 5548 5547 5540 5536 5515 5500 5486 5479 5472 5466 5465 5465 5462 5460 5462 5464 5468 5474 5482 5486 5487 5488 5493
5702 5696 5689 5682 5675 5668 5659 5650 5641 5631 5621 5611 5600 5590 5579 5566 5554 5541 5527 5512 5508 5508 5511 5507 5486 5467 5450 5444 5438 5436 5437 5438 5435 5434 5435 5436 5439 5444 5451 5458 5462 5464 5467
5690 5683 5676 5668 5659 5651 5642 5632 5622 5611 5600 5589 5577 5565 5552 5540 5526 5513 5498 5481 5461 5452 5461 5479 5452 5442 5421 5418 5415 5412 5411 5412 5412 5411 5409 5409 5412 5415 5420 5426 5435 5443 5444
5676 5668 5659 5651 5642 5633 5623 5613 5602 5592 5580 5566 5553 5541 5528 5515 5501 5486 5472 5458 5441 5419 5404 5431 5426 5416 5404 5394 5391 5387 5385 5386 5388 5389 5387 5386 5388 5392 5396 5400 5405 5411 5419
5660 5652 5643 5634 5624 5615 5604 5593 5582 5570 5558 5545 5531 5518 5504 5489 5476 5460 5445 5431 5417 5402 5382 5391 5379 5386 5375 5364 5361 5356 5357 5357 5360 5362 5362 5364 5366 5370 5375 5378 5381 5385 5392
5644 5635 5626 5616 5606 5595 5584 5573 5562 5550 5538 5524 5509 5493 5478 5462 5447 5432 5418 5406 5392 5380 5360 5350 5353 5346 5344 5336 5328 5322 5324 5325 5328 5334 5335 5339 5344 5348 5353 5357 5361 5365 5368
5628 5619 5609 5598 5587 5576 5565 5554 5542 5530 5515 5500 5484 5468 5450 5434 5423 5409 5396 5381 5368 5355 5343 5328 5325 5319 5317 5313 5303 5296 5292 5290 5292 5299 5306 5312 5317 5323 5329 5335 5340 5345 5350
5612 5601 5591 5580 5568 5556 5545 5533 5521 5508 5493 5477 5459 5441 5425 5411 5399 5387 5374 5359 5345 5334 5324 5313 5305 5298 5294 5291 5277 5267 5261 5259 5257 5262 5272 5280 5288 5296 5304 5312 5319 5325 5330
5594 5584 5573 5562 5549 5537 5524 5511 5498 5484 5469 5452 5436 5419 5404 5392 5379 5364 5349 5338 5325 5314 5305 5294 5287 5280 5272 5264 5256 5247 5233 5229 5230 5232 5237 5245 5257 5267 5278 5286 5295 5303 5308
5578 5567 5555 5543 5531 5517 5504 5490 5476 5460 5445 5429 5414 5403 5388 5373 5359 5347 5333 5318 5307 5297 5287 5276 5271 5262 5255 5245 5237 5228 5217 5211 5210 5216 5208 5219 5227 5240 5251 5258 5268 5277 5286
5562 5551 5539 5525 5511 5498 5485 5470 5455 5439 5422 5406 5393 5382 5370 5352 5338 5327 5316 5305 5295 5284 5271 5260 5254 5245 5237 5230 5220 5214 5207 5199 5197 5199 5194 5202 5208 5216 5226 5234 5242 5252 5262
5547 5534 5521 5508 5494 5478 5464 5448 5433 5419 5404 5389 5374 5361 5347 5334 5320 5307 5299 5290 5282 5272 5261 5251 5238 5229 5220 5215 5206 5200 5195 5191 5190 5186 5184 5190 5194 5201 5207 5216 5224 5232 5242
5531 5517 5503 5490 5475 5459 5442 5427 5413 5401 5388 5374 5358 5341 5326 5315 5302 5291 5280 5273 5268 5260 5251 5240 5228 5217 5209 5203 5196 5192 5188 5184 5183 5181 5180 5182 5186 5191 5196 5202 5208 5217 5227
5515 5500 5484 5468 5453 5438 5423 5409 5395 5381 5370 5357 5344 5325 5311 5298 5287 5276 5265 5257 5251 5246 5238 5232 5221 5209 5200 5195 5189 5184 5181 5180 5179 5180 5179 5179 5180 5184 5189 5194 5200 5208 5218
Wind_Speed
25 28 31 35 36 39 41 42 41 40 40 40 40 39 39 39 41 42 42 42 43 44 44 45 46 46 47 49 49 50 52 53 54 53 52 52 51 50 48 46 45 45 45
30 33 36 37 39 37 38 37 36 35 35 35 36 37 37 38 39 41 42 43 45 47 49 49 50 50 51 52 53 53 53 54 53 53 52 52 52 51 51 50 49 49 48
35 36 37 37 36 35 35 34 34 33 34 35 36 38 40 42 44 46 48 48 49 51 53 54 55 55 55 56 56 57 58 58 58 57 57 56 56 55 55 55 55 53 52
37 37 36 35 35 35 35 34 35 36 38 40 41 43 44 46 48 50 51 53 53 54 54 54 57 58 57 57 57 58 58 60 60 61 61 60 60 60 60 60 59 59 58
37 36 35 36 36 36 37 39 40 41 42 44 45 46 46 47 48 50 52 54 55 56 57 58 57 59 61 61 60 59 59 59 60 61 61 61 61 62 62 62 61 60 58
37 36 36 37 38 39 41 42 43 45 46 46 46 47 48 50 52 54 56 57 59 61 62 63 63 64 64 65 67 68 67 67 66 65 65 64 63 63 63 62 62 63 62
37 38 39 40 41 41 43 43 43 43 45 48 50 52 55 57 58 61 62 64 65 66 67 69 70 71 72 73 72 73 73 73 72 72 71 68 66 65 63 64 63 63 63
39 40 41 42 43 43 43 43 45 47 51 55 59 62 63 62 64 67 68 68 69 69 70 71 73 74 76 76 77 77 78 77 77 76 76 74 73 69 67 66 64 64 65
40 41 42 43 42 42 44 47 49 51 54 58 63 68 70 70 71 70 70 72 72 74 74 76 77 79 81 83 83 83 83 84 84 83 82 80 78 76 72 68 68 68 67
42 42 42 41 43 46 48 50 53 57 61 65 68 69 72 76 79 78 78 79 79 80 81 82 84 86 89 91 90 89 88 86 87 88 87 85 84 81 74 73 73 72 69
42 41 42 45 48 50 53 56 61 64 70 72 74 75 77 78 80 84 85 87 88 90 90 92 93 95 96 97 96 96 94 91 89 88 90 89 81 78 72 77 77 75 72
42 44 47 49 52 55 59 62 66 70 73 75 76 79 81 84 86 88 90 90 92 92 94 95 98 101 103 103 101 96 97 91 86 87 89 92 83 80 78 79 80 77 80
45 47 51 54 57 60 65 69 73 74 76 78 80 82 85 88 91 94 97 97 98 97 98 98 103 106 108 107 102 96 87 79 80 82 84 87 90 91 85 80 73 70 77
49 53 57 61 64 67 70 73 75 76 78 80 83 86 89 92 95 98 101 106 107 106 104 102 104 104 103 96 91 85 76 69 71 73 75 80 83 86 92 92 93 80 74
55 59 63 65 68 70 73 75 77 79 82 85 88 92 94 97 100 103 104 104 107 110 109 100 98 91 91 85 81 77 72 68 67 68 68 69 72 79 84 90 92 98 108
60 63 66 68 70 73 76 78 80 83 86 90 94 96 98 101 100 100 100 99 96 98 103 95 90 88 88 86 82 79 76 71 69 65 66 67 67 68 70 79 86 92 97
65 67 69 71 73 76 79 82 85 88 91 94 97 99 100 100 100 99 97 94 94 97 100 90 88 80 83 87 87 87 82 77 72 70 70 66 64 62 62 65 75 81 87
68 70 72 74 77 79 82 85 88 92 94 97 99 100 100 100 96 93 91 92 92 90 90 89 82 78 72 72 77 85 89 87 81 75 74 71 67 65 63 62 61 66 72
71 73 75 77 80 82 85 88 91 93 96 98 99 99 97 94 89 87 89 88 85 83 81 79 71 68 64 61 66 69 72 77 87 86 81 77 75 71 66 63 62 62 64
73 74 77 79 81 84 86 89 92 95 97 98 96 94 91 87 86 88 85 80 78 76 72 70 70 67 64 62 66 69 71 70 74 79 87 85 81 77 73 68 65 64 65
74 77 78 80 83 85 88 92 95 97 97 95 93 89 83 85 86 84 78 74 72 69 67 70 69 65 62 61 60 61 63 62 61 67 74 83 86 83 79 77 72 68 69
76 76 79 82 83 87 91 94 97 97 94 90 85 79 82 85 83 75 70 69 69 66 68 67 62 60 57 58 57 56 54 50 46 44 56 64 74 79 81 81 78 75 71
75 78 81 84 87 90 93 94 94 90 85 82 80 80 81 83 75 69 66 66 63 63 61 60 61 58 57 56 55 51 46 44 37 32 39 46 52 61 66 69 68 67 66
77 80 84 87 90 94 94 91 86 81 78 79 81 82 83 75 69 67 65 61 58 56 56 57 61 59 57 53 52 48 41 34 26 24 28 28 35 41 48 50 52 54 56
80 84 88 91 92 91 88 83 80 76 76 77 80 84 76 69 67 65 63 58 54 51 52 55 57 53 52 49 46 40 32 25 15 13 17 19 24 29 35 39 42 46 49
84 89 91 93 92 88 81 76 75 75 76 77 80 78 68 67 65 61 59 57 53 50 49 49 44 45 46 41 38 34 27 12 2 2 10 15 18 19 22 27 32 37 41
Wind_Direction
287 286 285 285 285 285 285 287 286 285 286 286 286 286 286 286 286 285 285 285 286 285 284 284 284 284 284 283 283 281 280 279 278 278 278 277 276 275 274 274 274 276 276
284 284 284 285 285 287 289 288 288 288 287 287 287 288 288 288 288 287 288 288 287 287 286 285 285 284 283 282 282 281 281 281 281 281 279 278 276 276 275 274 274 274 273
292 290 288 287 290 291 288 290 291 291 290 290 290 290 291 290 290 291 291 291 290 289 290 290 288 287 286 285 285 284 283 282 281 280 279 277 276 274 274 273 273 271 270
297 295 292 291 290 290 290 291 290 290 290 290 291 293 293 294 295 294 294 293 293 292 290 288 288 287 284 283 281 281 281 281 280 278 277 277 277 277 276 275 274 273 271
297 294 292 291 290 290 291 292 294 294 295 294 294 295 295 296 296 296 294 294 293 291 289 288 286 286 286 285 284 283 281 281 279 278 277 276 275 273 273 274 273 272 271
295 294 294 294 295 295 296 297 298 297 297 298 298 299 299 299 298 297 296 295 293 293 292 291 289 287 284 284 284 284 283 281 280 277 275 274 274 273 271 269 269 269 269
296 296 298 300 300 300 300 299 300 301 301 301 300 300 300 300 299 298 297 296 294 291 290 289 287 287 286 284 283 282 282 281 280 278 276 274 273 271 270 269 268 266 266
298 301 302 302 302 302 301 302 302 303 305 306 306 305 302 299 298 297 295 292 290 289 287 287 286 286 285 284 283 283 281 280 278 277 276 274 272 269 267 266 266 265 264
302 303 303 301 300 300 300 301 302 303 305 305 306 305 302 299 296 294 291 290 289 288 287 286 285 284 283 283 282 281 279 278 276 275 274 273 272 271 268 265 262 262 260
302 300 298 298 297 297 297 299 301 302 303 305 304 303 302 301 300 298 296 294 291 290 288 288 287 286 284 283 281 279 276 272 270 269 270 269 268 265 264 263 261 259 257
296 294 293 294 296 298 300 303 306 307 307 306 304 303 300 297 295 296 297 295 294 293 291 290 288 287 286 284 283 280 277 273 269 263 260 259 258 258 257 257 256 255 255
293 296 298 300 302 304 305 306 307 307 305 303 301 300 299 298 297 296 295 293 292 291 291 291 290 288 286 284 281 278 277 273 266 260 255 254 252 248 249 255 255 250 251
298 302 305 305 305 306 308 308 306 304 303 303 302 300 299 298 297 296 295 294 293 293 293 294 292 289 286 284 281 279 277 273 269 264 259 255 251 250 244 240 239 242 246
304 306 306 307 308 307 306 305 304 305 304 302 300 300 299 299 299 300 299 299 297 297 296 295 289 287 286 285 285 283 280 273 268 265 261 257 254 250 248 244 240 240 233
306 307 307 306 306 306 305 306 306 304 303 302 302 303 303 304 303 303 301 300 298 296 294 292 290 289 287 287 285 283 279 274 267 263 261 259 257 253 249 247 245 242 243
307 306 306 306 306 307 307 306 305 304 304 305 306 306 306 305 303 301 300 298 297 297 296 295 291 288 285 283 281 279 276 271 266 263 260 259 258 257 256 250 247 246 242
307 306 306 307 307 306 306 306 306 306 307 307 308 307 307 305 303 300 299 299 298 297 297 297 293 289 284 280 277 273 271 269 265 259 256 255 255 257 256 256 252 250 248
306 306 307 307 306 306 306 307 308 308 308 309 310 309 306 303 303 302 301 301 301 300 298 298 297 295 290 285 280 274 270 265 263 259 255 254 253 253 254 255 255 255 254
307 307 307 307 306 307 309 310 309 311 312 312 310 307 305 304 304 304 304 304 302 300 300 300 299 298 298 294 288 283 277 270 261 256 255 253 252 252 250 252 253 254 254
307 307 307 308 309 311 311 312 313 315 315 313 309 307 307 307 308 308 307 305 302 302 301 300 301 301 300 299 294 289 279 272 265 258 252 251 250 251 250 249 251 252 252
308 307 309 311 312 313 314 316 317 316 314 311 309 308 308 310 311 310 308 305 305 304 303 302 302 302 302 301 300 294 289 281 268 258 252 248 248 248 249 251 252 251 250
307 310 312 313 313 315 316 317 316 315 312 309 309 308 311 312 312 309 307 306 306 306 305 306 307 304 302 304 303 302 298 293 282 268 255 248 247 247 249 251 252 253 250
311 312 313 314 316 317 317 316 314 311 312 311 310 312 314 314 312 309 307 305 306 306 307 305 309 305 304 305 303 304 303 299 290 278 262 251 249 246 247 249 249 247 244
313 314 315 316 317 317 316 313 311 313 312 311 313 315 316 315 312 309 308 307 307 307 307 307 310 308 306 306 306 307 306 301 297 283 270 257 250 247 248 248 246 243 239
314 315 316 317 317 315 313 312 313 312 311 314 316 318 318 315 311 310 308 308 309 306 308 308 310 307 305 308 309 313 312 309 300 277 275 273 253 247 248 245 241 237 233
315 315 316 317 315 313 312 313 313 313 316 318 319 319 316 314 314 312 310 309 308 307 309 310 306 303 304 307 310 312 314 315 251 229 305 296 268 251 241 238 236 233 230